This demonstration page uses our WeatherBlox Daily Observations layout. Learn more.

Left ArrowRight Arrow

34.02893, -84.19858

Hourly Observations for May 23, 2015

Temp ( °F °C ) Dew Point ( °F °C ) Humidity (%) Winds ( mph kmh ) Pressure ( in mb ) Visibility ( mi km ) Precip ( " mm )
12:53 am 00:53 Clear 59 15 53 11.7 81 81 Calm 30.24 1024 9 14 0.00 0.00
1:53 am 01:53 Clear 57 13.9 54 12.2 90 90 Calm 30.24 1024 9 14 0.00 0.00
2:53 am 02:53 Clear 57 13.9 53 11.7 87 87 Calm 30.24 1024 8 13 0.00 0.00
3:53 am 03:53 Clear 56 13.3 53 11.7 90 90 Calm 30.25 1024 8 13 0.00 0.00
4:53 am 04:53 Clear 55 12.8 53 11.7 93 93 Calm 30.26 1025 8 13 0.00 0.00
5:53 am 05:53 Clear 54 12.2 52 11.1 93 93 Calm 30.28 1025 7 11 0.00 0.00
6:53 am 06:53 Sunny with Mist and Fog 57 13.9 53 11.7 87 87 Calm 30.30 1026 6 10 0.00 0.00
7:53 am 07:53 Sunny 62 16.7 53 11.7 73 73 ENE 5 7 30.33 1027 7 11 0.00 0.00
8:06 am 08:06 Mostly Sunny 63 17 54 12 73 73 VRB 5 7 30.36 1028 7 11 0.00 0.00
8:53 am 08:53 Sunny 66 18.9 54 12.2 65 65 Calm 30.36 1028 8 13 0.00 0.00
9:53 am 09:53 Sunny 68 20 56 13.3 65 65 VRB 3 6 30.37 1028 8 13 0.00 0.00
10:53 am 10:53 Sunny 73 22.8 54 12.2 51 51 VRB 7 11 30.36 1028 9 14 0.00 0.00
11:53 am 11:53 Sunny 75 23.9 48 8.9 39 39 ESE 9 15 30.36 1028 9 14 0.00 0.00
12:53 pm 12:53 Sunny 76 24.4 50 10 40 40 E 9 15 30.34 1028 9 14 0.00 0.00
1:53 pm 13:53 Sunny 78 25.6 48 8.9 35 35 SSE 10 17 30.34 1027 10 16 0.00 0.00
2:53 pm 14:53 Sunny 80 26.7 49 9.4 34 34 VRB 5 7 30.32 1027 10 16 0.00 0.00
3:53 pm 15:53 Sunny 80 26.7 49 9.4 34 34 VRB 7 11 30.31 1027 9 14 0.00 0.00
4:53 pm 16:53 Sunny 80 26.7 50 10 35 35 VRB 5 7 30.28 1026 9 14 0.00 0.00
5:53 pm 17:53 Sunny 80 26.7 49 9.4 34 34 ESE 9 15 30.28 1025 9 14 0.00 0.00
6:53 pm 18:53 Sunny 79 26.1 49 9.4 35 35 VRB 5 7 30.27 1025 9 14 0.00 0.00
7:53 pm 19:53 Sunny 77 25 48 8.9 36 36 VRB 5 7 30.26 1025 9 14 0.00 0.00
8:53 pm 20:53 Clear 73 22.8 49 9.4 43 43 E 3 6 30.26 1025 9 14 0.00 0.00
9:53 pm 21:53 Clear 71 21.7 49 9.4 46 46 E 3 6 30.27 1025 10 16 0.00 0.00
10:53 pm 22:53 Clear 69 20.6 49 9.4 49 49 E 5 7 30.28 1025 10 16 0.00 0.00
11:53 pm 23:53 Clear 67 19.4 48 8.9 51 51 E 3 6 30.28 1025 10 16 0.00 0.00

Powered by AerisWeather